Roseau, MN

7:40 AM CST on February 24, 2017 (GMT -0600)
Roseau Municipal-Billberg

Weather History for KROX - February, 2013

Change the Weather History Date:

Monday, February 11, 2013

  Actual Average Record
Temperature  
Mean Temperature 16 °F -  
Max Temperature 23 °F 14 °F 42 °F (2002)
Min Temperature 8 °F -6 °F -39 °F (1981)
Degree Days  
Heating Degree Days 50    
Moisture  
Dew Point 13 °F    
Average Humidity 79    
Maximum Humidity 86    
Minimum Humidity 68    
Precipitation  
Precipitation 0.01 in - - ()
Sea Level Pressure  
Sea Level Pressure 29.82 in    
Wind  
Wind Speed 14 mph (WNW)    
Max Wind Speed 20 mph    
Max Gust Speed 24 mph    
Visibility 8 miles    
Events Snow    
Averages and records for this station are not official NWS values.
T = Trace of Precipitation, MM = Missing Value Source: NWS Daily Summary

Daily Weather History Graph

Daily Weather History Graph

Search for Another Location

Airport or City:

Trip Planner

Search our weather history database for the weather conditions in past years. The results will help you decide how hot, cold, wet, or windy it might be!

Date:

Astronomy

Feb. 11, 2013 Rise Set
Actual Time 7:37 AM CST 5:37 PM CST
Civil Twilight 7:04 AM CST 6:10 PM CST
Nautical Twilight 6:27 AM CST 6:47 PM CST
Astronomical Twilight 5:50 AM CST 7:24 PM CST
Moon 7:49 AM CST (2/11) 7:50 PM CST (2/11)
Length of Visible Light 11h 06m
Length of Day
10h 00m
Waxing Crescent, 3% of the Moon is Illuminated
Feb 11
Waxing Crescent
Feb 17
First Quarter
Feb 25
Full
Mar 4
Last Quarter
Mar 11
New

Hourly Weather History & Observations

Time (CST) Temp. Windchill Dew Point Humidity Pressure Visibility Wind Dir Wind Speed Gust Speed Precip Events Conditions
12:14 AM 23.0 °F 9.6 °F 19.4 °F 86% 29.70 in 1.5 mi North 16.1 mph - N/A Snow Light Snow
12:34 AM 23.0 °F 10.6 °F 19.4 °F 86% 29.70 in 2.0 mi North 13.8 mph - N/A Snow Light Snow
12:54 AM 23.0 °F 8.7 °F 17.6 °F 80% 29.70 in 1.8 mi North 18.4 mph 24.2 mph N/A Snow Light Snow
1:14 AM 23.0 °F 10.1 °F 17.6 °F 80% 29.71 in 1.8 mi North 15.0 mph - N/A Snow Light Snow
1:34 AM 21.2 °F 6.4 °F 17.6 °F 86% 29.70 in 2.0 mi North 18.4 mph - N/A Snow Light Snow
1:54 AM 21.2 °F 6.8 °F 17.6 °F 86% 29.71 in 3.0 mi North 17.3 mph - N/A Snow Light Snow
2:14 AM 21.2 °F 6.4 °F 17.6 °F 86% 29.71 in 4.0 mi North 18.4 mph 23.0 mph N/A Snow Light Snow
2:34 AM 21.2 °F 6.8 °F 17.6 °F 86% 29.72 in 3.0 mi North 17.3 mph - N/A Snow Light Snow
2:54 AM 21.2 °F 6.4 °F 17.6 °F 86% 29.72 in 2.0 mi North 18.4 mph 23.0 mph N/A Snow Light Snow
3:15 AM 21.2 °F 6.8 °F 17.6 °F 86% 29.73 in 2.0 mi North 17.3 mph - N/A Snow Light Snow
3:34 AM 21.2 °F 6.4 °F 17.6 °F 86% 29.73 in 2.0 mi North 18.4 mph - N/A Snow Light Snow
3:54 AM 21.2 °F 6.8 °F 15.8 °F 80% 29.73 in 3.0 mi North 17.3 mph - N/A Snow Light Snow
4:15 AM 21.2 °F 7.3 °F 15.8 °F 80% 29.74 in 5.0 mi North 16.1 mph - N/A Snow Light Snow
4:34 AM 21.2 °F 7.3 °F 15.8 °F 80% 29.74 in 7.0 mi North 16.1 mph - N/A Snow Light Snow
4:54 AM 21.2 °F 7.8 °F 15.8 °F 80% 29.75 in 10.0 mi North 15.0 mph - N/A Snow Light Snow
5:15 AM 21.2 °F 8.3 °F 15.8 °F 80% 29.76 in 7.0 mi NNW 13.8 mph - N/A Snow Light Snow
5:54 AM 21.2 °F 7.3 °F 15.8 °F 80% 29.76 in 10.0 mi North 16.1 mph - N/A   Scattered Clouds
6:15 AM 21.2 °F 7.8 °F 17.6 °F 86% 29.77 in 10.0 mi NNW 15.0 mph - N/A   Clear
6:34 AM 21.2 °F 7.3 °F 17.6 °F 86% 29.77 in 10.0 mi NNW 16.1 mph 20.7 mph N/A   Clear
6:54 AM 21.2 °F 6.0 °F 15.8 °F 80% 29.78 in 10.0 mi NNW 19.6 mph 24.2 mph N/A   Clear
7:14 AM 21.2 °F 8.9 °F 15.8 °F 80% 29.79 in 10.0 mi North 12.7 mph - N/A   Scattered Clouds
7:35 AM 21.2 °F 9.5 °F 15.8 °F 80% 29.79 in 10.0 mi NNW 11.5 mph - N/A   Clear
7:54 AM 21.2 °F 7.3 °F 15.8 °F 80% 29.80 in 10.0 mi North 16.1 mph - N/A   Clear
8:14 AM 21.2 °F 6.8 °F 15.8 °F 80% 29.81 in 10.0 mi NNW 17.3 mph - N/A   Clear
8:34 AM 19.4 °F 4.5 °F 14.0 °F 80% 29.82 in 10.0 mi North 17.3 mph - N/A   Scattered Clouds
8:54 AM 19.4 °F 5.5 °F 14.0 °F 80% 29.82 in 10.0 mi NNW 15.0 mph - N/A   Scattered Clouds
9:15 AM 19.4 °F 4.1 °F 14.0 °F 80% 29.82 in 10.0 mi NNW 18.4 mph 24.2 mph N/A   Scattered Clouds
9:34 AM 19.4 °F 5.0 °F 14.0 °F 80% 29.83 in 10.0 mi NNW 16.1 mph - N/A   Clear
9:54 AM 19.4 °F 6.0 °F 14.0 °F 80% 29.84 in 10.0 mi NNW 13.8 mph - N/A   Clear
10:15 AM 19.4 °F 5.0 °F 14.0 °F 80% 29.84 in 10.0 mi NNW 16.1 mph - N/A Snow Light Snow
10:34 AM 19.4 °F 6.0 °F 14.0 °F 80% 29.85 in 10.0 mi NNW 13.8 mph - N/A Snow Light Snow
10:54 AM 19.4 °F 5.5 °F 14.0 °F 80% 29.86 in 10.0 mi NNW 15.0 mph - N/A Snow Light Snow
11:15 AM 19.4 °F 5.5 °F 14.0 °F 80% 29.86 in 7.0 mi NW 15.0 mph - N/A Snow Light Snow
11:34 AM 19.4 °F 6.0 °F 14.0 °F 80% 29.87 in 5.0 mi NW 13.8 mph - N/A Snow Light Snow
11:54 AM 21.2 °F 10.1 °F 15.8 °F 80% 29.87 in 10.0 mi NW 10.4 mph - N/A Snow Light Snow
12:14 PM 19.4 °F 9.5 °F 14.0 °F 80% 29.87 in 10.0 mi WNW 8.1 mph - N/A Snow Light Snow
12:34 PM 21.2 °F 11.7 °F 14.0 °F 74% 29.87 in 10.0 mi NW 8.1 mph - 0.01 in   Mostly Cloudy
12:54 PM 21.2 °F 13.6 °F 14.0 °F 74% 29.87 in 10.0 mi WNW 5.8 mph - 0.01 in   Mostly Cloudy
1:14 PM 21.2 °F 11.7 °F 14.0 °F 74% 29.87 in 10.0 mi West 8.1 mph - N/A   Scattered Clouds
1:34 PM 19.4 °F 7.2 °F 12.2 °F 74% 29.86 in 10.0 mi West 11.5 mph - N/A   Clear
1:54 PM 19.4 °F 7.2 °F 12.2 °F 74% 29.86 in 10.0 mi West 11.5 mph - N/A   Clear
2:14 PM 19.4 °F 7.2 °F 12.2 °F 74% 29.86 in 10.0 mi West 11.5 mph - N/A   Clear
2:34 PM 19.4 °F 6.6 °F 12.2 °F 74% 29.86 in 10.0 mi West 12.7 mph 19.6 mph N/A   Scattered Clouds
2:54 PM 19.4 °F 6.6 °F 12.2 °F 74% 29.86 in 10.0 mi West 12.7 mph - N/A   Mostly Cloudy
3:14 PM 19.4 °F 6.6 °F 12.2 °F 74% 29.87 in 10.0 mi West 12.7 mph - N/A   Mostly Cloudy
3:34 PM 19.4 °F 6.6 °F 12.2 °F 74% 29.87 in 10.0 mi West 12.7 mph - N/A   Scattered Clouds
3:54 PM 19.4 °F 7.2 °F 12.2 °F 74% 29.87 in 10.0 mi West 11.5 mph - N/A   Clear
4:54 PM 19.4 °F 7.9 °F 10.4 °F 68% 29.89 in 10.0 mi West 10.4 mph 16.1 mph N/A   Clear
5:14 PM 19.4 °F 9.5 °F 10.4 °F 68% 29.89 in 10.0 mi West 8.1 mph - N/A   Clear
5:34 PM 17.6 °F 7.3 °F 10.4 °F 73% 29.89 in 10.0 mi West 8.1 mph - N/A   Clear
5:55 PM 15.8 °F 6.1 °F 10.4 °F 79% 29.89 in 10.0 mi West 6.9 mph - N/A   Clear
6:14 PM 15.8 °F 7.2 °F 8.6 °F 73% 29.89 in 10.0 mi WSW 5.8 mph - N/A   Clear
6:35 PM 14.0 °F 3.9 °F 6.8 °F 73% 29.90 in 10.0 mi WSW 6.9 mph - N/A   Clear
6:54 PM 12.2 °F 1.7 °F 6.8 °F 79% 29.90 in 10.0 mi SW 6.9 mph - N/A   Clear
7:14 PM 12.2 °F 1.7 °F 6.8 °F 79% 29.90 in 10.0 mi WSW 6.9 mph - N/A   Clear
7:35 PM 10.4 °F 0.8 °F 3.2 °F 73% 29.90 in 10.0 mi SW 5.8 mph - N/A   Clear
7:54 PM 8.6 °F -2.6 °F 3.2 °F 79% 29.90 in 10.0 mi SW 6.9 mph - N/A   Clear
8:14 PM 8.6 °F -3.7 °F 3.2 °F 79% 29.89 in 10.0 mi SW 8.1 mph - N/A   Scattered Clouds
8:35 PM 10.4 °F -1.5 °F 5.0 °F 79% 29.89 in 10.0 mi SW 8.1 mph - N/A Snow Light Snow
8:54 PM 10.4 °F -1.5 °F 6.8 °F 85% 29.88 in 10.0 mi SW 8.1 mph - N/A Snow Light Snow
9:14 PM 12.2 °F 1.7 °F 8.6 °F 85% 29.88 in 10.0 mi SSW 6.9 mph - N/A Snow Light Snow
9:35 PM 14.0 °F 5.1 °F 8.6 °F 79% 29.87 in 10.0 mi SSW 5.8 mph - N/A   Overcast
9:54 PM 15.8 °F 5.1 °F 10.4 °F 79% 29.87 in 10.0 mi SW 8.1 mph - N/A   Overcast
10:14 PM 15.8 °F 4.2 °F 10.4 °F 79% 29.87 in 10.0 mi SW 9.2 mph - N/A   Scattered Clouds
10:35 PM 12.2 °F -0.2 °F 8.6 °F 85% 29.85 in 10.0 mi SSW 9.2 mph - N/A   Clear
10:54 PM 12.2 °F -1.8 °F 8.6 °F 85% 29.85 in 10.0 mi SSW 11.5 mph - N/A   Clear
11:14 PM 12.2 °F -0.2 °F 8.6 °F 85% 29.84 in 10.0 mi SW 9.2 mph - N/A   Clear
11:34 PM 12.2 °F -0.2 °F 6.8 °F 79% 29.84 in 10.0 mi SSW 9.2 mph - N/A   Clear
11:54 PM 12.2 °F -1.0 °F 6.8 °F 79% 29.83 in 10.0 mi South 10.4 mph - N/A   Clear